Location: Azat
(46.0765°N, 1.7600°E)
Time: 21:03:41
(UTC+00:00)

Cosmos 1140 Rocket - Pass Details

Date: 09 April 2020
Orbit: 745 x 767 km, 74.1° (Epoch: 25 May)

Event Time Altitude Azimuth Distance (km) Brightness Sun altitude
Rises 20:04:02 0° 208° (SSW) 3,202 6.7 -15.6°
Reaches altitude 10° 20:06:25 10° 211° (SSW) 2,278 6.0 -15.9°
Maximum altitude 20:11:33 67° 294° (WNW) 818 3.8 -16.7°
Drops below altitude 10° 20:16:42 10° 17° (NNE) 2,280 6.1 -17.4°
Sets 20:19:05 0° 20° (NNE) 3,205 6.9 -17.8°
